Weather History for Monroe, LA

Change the Weather History Date:

Friday, June 29, 2012

  Actual Average Record
Temperature  
Mean Temperature 88 °F 82 °F  
Max Temperature 99 °F 93 °F 102 °F (1988)
Min Temperature 77 °F 72 °F 62 °F (1974)
Degree Days  
Heating Degree Days 0 0  
Month to date heating degree days 0 0  
Since 1 June heating degree days 0 0  
Since 1 July heating degree days 1563 2230  
Cooling Degree Days 23 17  
Month to date cooling degree days 487 448  
Year to date cooling degree days 1164 883  
Since 1 June cooling degree days 487 448  
Growing Degree Days 38 (Base 50)    
Moisture  
Dew Point 70 °F    
Average Humidity 55    
Maximum Humidity 74    
Minimum Humidity 35    
Precipitation  
Precipitation 0.00 in 0.16 in 2.16 in (1992)
Month to date precipitation 3.16 4.53  
Year to date precipitation 27.53 28.58  
Snow  
Snow 0.00 in - - ()
Month to date snowfall 0.0  
Since 1 June snowfall 0.0  
Since 1 July snowfall T  
Snow Depth 0.00 in    
Sea Level Pressure  
Sea Level Pressure 29.96 in    
Wind  
Wind Speed 4 mph (SW)    
Max Wind Speed 13 mph    
Max Gust Speed 16 mph    
Visibility 9 miles    
Events      
T = Trace of Precipitation, MM = Missing Value Source: NWS Daily Summary

Daily Weather History Graph

Daily Weather History Graph

Search for Another Location

Airport:

Trip Planner

Search our weather history database for the weather conditions in past years. The results will help you decide how hot, cold, wet, or windy it might be!

Date:

Astronomy

Jun. 29, 2012 Rise Set
Actual Time 6:03 AM CDT 8:19 PM CDT
Civil Twilight 5:35 AM CDT 8:47 PM CDT
Nautical Twilight 5:00 AM CDT 9:22 PM CDT
Astronomical Twilight 4:22 AM CDT 10:00 PM CDT
Moon 4:11 PM CDT 2:07 AM CDT
Length of Visible Light 15h 12m
Length of Day
14h 15m
Waxing Gibbous, 78% of the Moon is Illuminated
Jun 29
Waxing Gibbous
Jul 3
Full
Jul 10
Last Quarter
Jul 18
New
Jul 26
First Quarter

Hourly Weather History & Observations

Time (CDT) Temp. Heat Index Dew Point Humidity Pressure Visibility Wind Dir Wind Speed Gust Speed Precip Events Conditions
12:53 AM 78.1 °F - 70.0 °F 76% 30.01 in 10.0 mi Calm Calm - N/A   Clear
1:53 AM 80.1 °F 83.2 °F 70.0 °F 71% 29.99 in 10.0 mi SSW 3.5 mph - N/A   Clear
2:53 AM 79.0 °F - 69.1 °F 72% 29.99 in 9.0 mi SSW 3.5 mph - N/A   Clear
3:53 AM 82.4 °F 86.3 °F 69.8 °F 66% 29.99 in 9.0 mi WSW 6.9 mph - N/A   Clear
4:53 AM 81.0 °F 84.4 °F 70.0 °F 69% 30.00 in 8.0 mi WSW 6.9 mph - N/A   Clear
5:53 AM 80.1 °F 83.2 °F 70.0 °F 71% 30.01 in 8.0 mi West 5.8 mph - N/A   Clear
6:53 AM 80.1 °F 83.2 °F 70.0 °F 71% 30.02 in 6.0 mi West 8.1 mph - N/A   Haze
7:53 AM 82.9 °F 88.0 °F 72.0 °F 69% 30.03 in 7.0 mi West 5.8 mph - N/A   Clear
8:53 AM 86.0 °F 91.5 °F 71.1 °F 61% 30.03 in 10.0 mi WNW 9.2 mph - N/A   Clear
9:53 AM 89.1 °F 95.0 °F 71.1 °F 55% 30.02 in 6.0 mi NNW 6.9 mph - N/A   Haze
10:53 AM 91.9 °F 97.4 °F 70.0 °F 48% 30.01 in 10.0 mi WNW 6.9 mph - N/A   Haze
11:53 AM 93.9 °F 99.1 °F 69.1 °F 44% 30.01 in 10.0 mi NNW 3.5 mph - N/A   Haze
12:53 PM 97.0 °F 102.8 °F 69.1 °F 40% 29.99 in 6.0 mi NE 4.6 mph - N/A   Haze
1:53 PM 97.0 °F 101.0 °F 66.9 °F 37% 29.96 in 10.0 mi Variable 3.5 mph - N/A   Haze
2:53 PM 99.0 °F 105.5 °F 69.1 °F 38% 29.94 in 10.0 mi East 3.5 mph - N/A   Clear
3:53 PM 98.1 °F 103.0 °F 68.0 °F 37% 29.92 in 10.0 mi SSE 8.1 mph - N/A   Clear
4:53 PM 98.1 °F 102.4 °F 66.9 °F 36% 29.91 in 10.0 mi SE 4.6 mph - N/A   Clear
5:53 PM 97.0 °F 101.0 °F 66.9 °F 37% 29.90 in 10.0 mi Variable 3.5 mph - N/A   Clear
6:53 PM 95.0 °F 100.7 °F 69.1 °F 43% 29.89 in 10.0 mi Calm Calm - N/A   Clear
7:53 PM 91.0 °F 97.6 °F 71.1 °F 52% 29.89 in 10.0 mi South 3.5 mph - N/A   Clear
8:53 PM 86.0 °F 91.5 °F 71.1 °F 61% 29.89 in 10.0 mi Calm Calm - N/A   Clear
9:53 PM 86.0 °F 90.7 °F 70.0 °F 59% 29.90 in 10.0 mi South 3.5 mph - N/A   Clear
10:53 PM 84.0 °F 89.6 °F 72.0 °F 67% 29.91 in 10.0 mi Calm Calm - N/A   Clear
11:53 PM 80.1 °F 83.8 °F 72.0 °F 76% 29.91 in 9.0 mi Calm Calm - N/A   Clear